Location: Newark
(51.0089°N, 21.5817°E)
Time: 22:21:16
(UTC+00:00)

XW-2F - Pass Details

Date: 26 February 2020
Orbit: 503 x 521 km, 97.5° (Epoch: 06 April)

Event Time Altitude Azimuth Distance (km) Brightness Sun altitude
Rises 03:53:16 0° 25° (NNE) 2,637 ? -15.3°
Reaches altitude 10° 03:55:46 10° 42° (NE) 1,748 ? -14.9°
Maximum altitude 03:58:41 21° 93° (E) 1,194 ? -14.5°
Drops below altitude 10° 04:01:37 10° 144° (SE) 1,744 ? -14.0°
Sets 04:04:05 0° 160° (SSE) 2,629 ? -13.6°
